Regional Weather Roundup
Issued by NWS Sterling, VA

Home | Current Version | Previous Version | Text Only | Print | Product List | Glossary Off
Versions: 1 2 3 4 5 6 7 8 9 10 11 12 13 14 15 16 17 18 19 20 21 22 23 24 25 26 27 28 29 30 31 32 33 34 35 36 37 38 39 40 41 42 43 44 45 46 47 48 49 50

000
ASUS41 KLWX 270210
RWRLWX

REGIONAL WEATHER ROUNDUP
NATIONAL WEATHER SERVICE BALTIMORE MD/WASHINGTON DC
900 PM EST WED NOV 26 2014

Note: "FAIR" indicates few or no clouds below 12,000 feet
with no significant weather and/or obstructions to visibility.
 TC=TEMPERATURE CELSIUS

 * =Non NWS site. Station does not report precipitation (e.g. rain,
    snow, etc.), thunder, or fog.

DCZ001-MDZ009-015-VAZ040>042-051-053>054-270300-
WASHINGTON METRO

CITY           SKY/WX    TMP DP  RH WIND       PRES   REMARKS
WASHINGTON NAT CLOUDY    39  33  79 NW9       29.99R
DULLES         CLOUDY    34  33  96 NW6       29.97R
ANDREWS AFB    CLOUDY    37  34  91 NW10      29.95R
FT BELVOIR     MOCLDY    37  34  89 NW7       29.99R
QUANTICO       CLOUDY    37  34  89 NW6       30.01R
COLLEGE PARK*  CLOUDY    37  36  93 NW5       29.96R
LEESBURG*      CLOUDY    36  36 100 NW13      29.98R WCI  27
MANASSAS*      CLOUDY    37  37 100 CALM      29.99R
GAITHERSBURG*  CLOUDY    34  30  86 NW6       29.99R

$$

MDZ006>007-011-014-270300-
BALTIMORE METRO

CITY           SKY/WX    TMP DP  RH WIND       PRES   REMARKS
BWI AIRPORT    CLOUDY    36  32  85 NW6       29.93S
MD SCIENCE CTR   N/A     37  32  82 MISG      29.93S
MARTIN STATE   PTCLDY    37  36  93 NW8       29.94R
ANNAPOLIS      CLOUDY    38  34  85 NW8       29.94R
FORT MEADE*    CLOUDY    34  32  93 NW5       29.97R

$$

MDZ012-015-019>023-270300-
MARYLAND EASTERN SHORE

CITY           SKY/WX    TMP DP  RH WIND       PRES   REMARKS
OCEAN CITY     MOCLDY    38  35  89 N14G23    29.86R
SALISBURY      CLOUDY    40  36  86 NW10      29.89R
BAY BRIDGE AP*   N/A     37  34  87 NW15      29.93S WCI  28
CAMBRIDGE*     CLOUDY    41  36  81 NW13      29.91R
EASTON*        MOCLDY    39  39 100 N13G18    29.95R

$$

MDZ017>025-270300-
SOUTHERN MARYLAND

CITY           SKY/WX    TMP DP  RH WIND       PRES   REMARKS
PATUXENT RIVER CLOUDY    39  34  82 NW18G24   29.94R
ST INIGOES     CLOUDY    38  33  82 W12       29.95R
LEONARDTOWN*   CLOUDY    36  34  93 W5        29.96S

$$

MDZ003>005-270300-
NORTH CENTRAL MARYLAND

CITY           SKY/WX    TMP DP  RH WIND       PRES   REMARKS
FREDERICK*     CLOUDY    36  32  87 CALM      29.99S
HAGERSTOWN APT CLOUDY    34  31  88 NW7       29.97R
WESTMINSTER*     N/A     34  32  93 NW8       29.93R WCI  27

$$

MDZ501>502-270300-
WESTERN MARYLAND

CITY           SKY/WX    TMP DP  RH WIND       PRES   REMARKS
OAKLAND*       FOG       30 N/A N/A CALM      29.91S VSB 1/4
CUMBERLAND*    CLOUDY    34  34 100 CALM      30.02S VSB 1/4

$$

VAZ025>031-270300-
SHENANDOAH VALLEY

CITY           SKY/WX    TMP DP  RH WIND       PRES   REMARKS
WINCHESTER*    CLOUDY    36  32  87 W3        29.98S
FRONT ROYAL*   CLOUDY    32  32 100 S6        29.97S
LURAY*         FOG       32  32 100 S3        29.99R VSB 1/2
NEW MARKET*    CLOUDY    31  31 100 SW5       30.00R VSB 1/2
STAUNTON*        N/A     33  32  96 CALM      30.01
WAYNESBORO*    CLOUDY    32  32 100 CALM      29.98S

$$

WVZ021-048>050-054>055-270300-
EASTERN WEST VIRGINIA PANHANDLE

CITY           SKY/WX    TMP DP  RH WIND       PRES   REMARKS
MARTINSBURG    CLOUDY    37  30  75 NW5       29.98S
PETERSBURG*    FOG       32  32  99 CALM      30.00S VSB 1/4

$$

VAZ036>039-050-270300-
CENTRAL FOOTHILLS

CITY           SKY/WX    TMP DP  RH WIND       PRES   REMARKS
CHARLOTTESVILL CLOUDY    37  36  96 CALM      30.00R
CULPEPER*      CLOUDY    36  36 100 SW3       30.00R
ORANGE*        CLOUDY    36  36 100 CALM      30.01R
GORDONSVILLE*  CLOUDY    35  35  97 CALM      30.00R
WARRENTON*     CLOUDY    37  37 100 W3        29.98S

$$

VAZ055>057-270300-
NORTH AND CENTRAL PIEDMONT

CITY           SKY/WX    TMP DP  RH WIND       PRES   REMARKS
FREDERICKSBRG* DRIZZLE   38  38  99 W5        30.00R
STAFFORD*      DRIZZLE   36  36 100 CALM      30.03R

$$

NCZ024-NYZ072-PAZ021-071-VAZ022-071-270300-
OTHER REGIONAL OBSERVATIONS

CITY           SKY/WX    TMP DP  RH WIND       PRES   REMARKS
NEW YORK CITY  MIX PCPN  35  32  88 N10G16    29.82S FOG     WCI  27
PHILADELPHIA   CLOUDY    36  32  85 NW16      29.88R WCI  26
PITTSBURGH     CLOUDY    33  32  96 NW3       30.00S FOG
ROANOKE        CLOUDY    39  35  86 CALM      30.02F
RICHMOND       MOCLDY    40  36  86 W7        30.01R
RALEIGH        PTCLDY    39  37  92 E3        30.05F

$$

ANZ530>537-270300-
MARINE OBSERVATIONS

STATION/POSITION TIME  TEMP    WIND        PRES
                       AIR SEA DIR/SP/G
                 (UTC) (F)     (DEG/KT/KT) (MB)
THOMAS PT LIGHT  0200   37 48  310/ 11/ 12 1014.6R
BALT KEY BRIDGE  0200   38     320/ 12/ 13 1013.4S
COVE POINT       0200   38     340/ 19/ 24 1013.5R
LEWISETTA        0200   39 48  300/ 11/ 14 1014.3R
SOLOMONS ISLAND  0200      49                N/A
PINEY POINT      0200          340/ 18/ 19   N/A

$$



USA.gov is the U.S. government's official web portal to all federal, state and local government web resources and services.